Content
SEND FEEDBACK

Daily
Averages
Monthly
Summary
United States of America

RAPID CITY, SOUTH DAKOTA


Home > North America > United States > South Dakota
Elevation: 3162 feet     Latitude: 44 03N     Longitude: 103 04W

WEATHER
 
SELECT A DAY
Number of Records: 200,329;   Date Range: 1/1/95 - 7/29/14
 
SHARE

PRINT THIS DATA

[ ← Previous Day ]
WEATHER ALMANAC - FEBRUARY 22, 2013
[ Next Day → ]
[ °C ]   °F
Weather ElementAverageHighLow
Temperature21.4 °F36 °F (3:52 pm)12.2 °F (12:30 am)
Dewpoint16.2 °F25 °F (12:52 pm)9 °F (12:52 am)
Humidity81 %93 % (8:07 am)59 % (3:52 pm)
Barometer29.96 in30.07 in (7:52 am)29.86 in (11:52 pm)
Wind Speed2.3 mph9.2 mph (3:52 pm)
Weather ElementAverage
Visibility8.8 mi
Wind DirectionENE (54.8 °)

Weather ElementTotal
Precipitation---
Heating Degree Days40.9 (Base 65)
Averaged from 31 records on February 22, 2013
WEATHER CONDITIONS BREAKOUT
WIND DIRECTION BREAKOUT
WEATHER BY HOUR - FEBRUARY 22, 2013
[ °C ]   °F
Local TimeTemperatureDewpointHumidityBarometerVisibilityWind DirectionWind SpeedGust SpeedPrecipitationEventsConditions
12:30 AM12.2 °F10.4 °F92 %29.91 in9.0 miSE (130°)4.6 mph0.00 inScattered Clouds
12:52 AM12.9 °F9.0 °F84 %30.06 in6.0 miCalm0.00 inMostly Cloudy
1:49 AM15.8 °F12.2 °F86 %29.90 in10.0 miCalmOvercast
1:52 AM15.1 °F12.0 °F88 %30.05 in10.0 miCalmOvercast
2:52 AM16.0 °F12.9 °F88 %30.03 in5.0 miCalm0.00 inSnowLight Snow
3:52 AM16.0 °F12.9 °F88 %30.03 in4.0 miCalm0.00 inSnowLight Snow
4:02 AM15.8 °F12.2 °F86 %29.89 in6.0 miCalm0.00 inSnowLight Snow
4:26 AM17.6 °F12.2 °F79 %29.88 in7.0 miCalm0.00 inOvercast
4:37 AM17.6 °F12.2 °F79 %29.88 in7.0 miCalm0.00 inOvercast
4:52 AM15.8 °F12.2 °F86 %29.89 in8.0 miCalmOvercast
5:00 AM15.8 °F12.2 °F86 %29.89 in8.0 miCalmOvercast
5:52 AM16.0 °F12.9 °F88 %30.04 in10.0 miCalmOvercast
6:52 AM17.1 °F14.0 °F88 %30.05 in9.0 miCalmOvercast
7:52 AM17.1 °F14.0 °F88 %30.07 in7.0 miCalmOvercast
8:07 AM17.6 °F15.8 °F93 %29.92 in8.0 miCalmOvercast
8:52 AM19.0 °F15.1 °F85 %30.06 in10.0 miSSE (150°)3.5 mphOvercast
9:52 AM21.0 °F17.1 °F85 %30.06 in10.0 miSE (140°)3.5 mphScattered Clouds
10:52 AM25.0 °F19.9 °F81 %30.04 in10.0 miVariable3.5 mphPartly Cloudy
11:52 AM27.0 °F23.0 °F85 %30.03 in10.0 miSSE (160°)6.9 mphPartly Cloudy
12:52 PM32.0 °F25.0 °F75 %29.99 in10.0 miSSE (160°)8.1 mphPartly Cloudy
1:52 PM33.1 °F25.0 °F72 %29.97 in10.0 miSSE (150°)8.1 mphOvercast
2:52 PM35.1 °F24.1 °F64 %29.94 in10.0 miSouth (180°)5.8 mphOvercast
3:52 PM36.0 °F23.0 °F59 %29.93 in10.0 miSSE (150°)9.2 mphScattered Clouds
4:52 PM34.0 °F21.9 °F61 %29.92 in10.0 miSSE (160°)9.2 mphPartly Cloudy
5:52 PM30.0 °F21.9 °F72 %29.93 in10.0 miSE (140°)4.6 mphMostly Cloudy
6:52 PM30.0 °F21.0 °F69 %29.92 in10.0 miSouth (180°)3.5 mphMostly Cloudy
7:52 PM26.1 °F19.0 °F75 %29.93 in10.0 miCalmClear
8:52 PM23.0 °F17.1 °F78 %29.92 in10.0 miCalmClear
9:52 PM19.9 °F16.0 °F85 %29.91 in10.0 miCalmClear
10:52 PM17.1 °F12.9 °F84 %29.88 in10.0 miCalmClear
11:52 PM17.1 °F12.0 °F81 %29.86 in10.0 miCalmClear
Hourly data recorded from KRAP, located miles away from Rapid City, South Dakota







STORIES FROM OUR PARTNERS